{"data":{"norad_id":54846,"epoch":"2026-09-20T06:44:02.189760Z","epoch_age_seconds":111637,"freshness":"FRESH","line1":"1 54846U 22177AC  26263.28058090  .00000010  00000+0  98778-5 0  9991","line2":"2 54846  43.0026 113.6872 0000998 250.9840 109.0904 15.27574000206727","mean_motion":15.27574,"eccentricity":9.98e-5,"inclination_deg":43.0026,"raan_deg":113.6872,"arg_perigee_deg":250.984,"mean_anomaly_deg":109.0904,"bstar":9.8778e-6,"rev_number":20672,"period_min":94.267118974269,"perigee_km":482.38231409153,"apogee_km":483.75181042236,"semimajor_km":6861.2040622569,"source":"CELESTRAK","updated_at":"2026-09-21T09:00:33.137174Z"}}